When you browse on this site, cookies collect data to enhance your experience and personalize the content and advertising you see.
Visit our Privacy Policy to learn more. By continuing to use the site, you agree to this use of cookies and data.
  • In Portugal
  • List of Countries
  • For 7 days
  • Water Temperature
  • Satellite Maps
  • Weather Map
  • Weather Widgets
  • user-avatar
    Login

    Hourly Weather Primorsko

    Today, 18 February, Monday

    Time Temperature Precipitation Wind Pressure Humidity
    00:00 +7°C° 0 mm 2 mps 767 mmHg 70%
    01:00 +7°C° 0 mm 2 mps 767 mmHg 71%
    02:00 +7°C° 0 mm 2 mps 767 mmHg 71%
    03:00 +7°C° 0 mm 2 mps 767 mmHg 71%
    04:00 +6°C° 0 mm 2 mps 767 mmHg 71%
    05:00 +6°C° 0 mm 2 mps 767 mmHg 70%
    06:00 +6°C° 0 mm 2 mps 767 mmHg 69%
    07:00 +7°C° 0 mm 2 mps 767 mmHg 69%
    08:00 +7°C° 0 mm 2 mps 767 mmHg 68%
    09:00 +8°C° 0 mm 2 mps 767 mmHg 63%
    10:00 +10°C° 0 mm 2 mps 767 mmHg 58%
    11:00 +13°C° 0 mm 2 mps 768 mmHg 53%
    12:00 +13°C° 0 mm 2 mps 767 mmHg 53%
    13:00 +14°C° 0 mm 2 mps 767 mmHg 52%
    14:00 +14°C° 0 mm 2 mps 767 mmHg 52%
    15:00 +14°C° 0 mm 2 mps 767 mmHg 57%
    16:00 +13°C° 0 mm 2 mps 767 mmHg 62%
    17:00 +12°C° 0 mm 2 mps 767 mmHg 67%
    18:00 +10°C° 0 mm 2 mps 767 mmHg 72%
    19:00 +9°C° 0 mm 2 mps 767 mmHg 78%
    20:00 +8°C° 0 mm 2 mps 767 mmHg 83%
    21:00 +8°C° 0 mm 2 mps 767 mmHg 85%
    22:00 +8°C° 0 mm 2 mps 767 mmHg 86%
    23:00 +7°C° 0 mm 2 mps 768 mmHg 88%

    Tomorrow, 19 February, Tuesday

    Time Temperature Precipitation Wind Pressure Humidity
    00:00 +8°C° 0 mm 1 mps 768 mmHg 88%
    01:00 +8°C° 0 mm 1 mps 768 mmHg 89%
    02:00 +8°C° 0 mm 1 mps 768 mmHg 89%
    03:00 +8°C° 0 mm 1 mps 768 mmHg 89%
    04:00 +8°C° 0 mm 1 mps 767 mmHg 89%
    05:00 +7°C° 0 mm 1 mps 767 mmHg 90%
    06:00 +7°C° 0 mm 2 mps 767 mmHg 90%
    07:00 +7°C° 0 mm 2 mps 768 mmHg 90%
    08:00 +7°C° 0 mm 2 mps 768 mmHg 90%
    09:00 +8°C° 0 mm 2 mps 768 mmHg 83%
    10:00 +10°C° 0 mm 3 mps 768 mmHg 76%
    11:00 +11°C° 0 mm 3 mps 768 mmHg 69%
    12:00 +12°C° 0 mm 3 mps 767 mmHg 67%
    13:00 +12°C° 0 mm 3 mps 767 mmHg 65%
    14:00 +13°C° 0 mm 3 mps 767 mmHg 63%
    15:00 +12°C° 0 mm 3 mps 766 mmHg 67%
    16:00 +11°C° 0 mm 4 mps 766 mmHg 71%
    17:00 +11°C° 0 mm 4 mps 766 mmHg 74%
    18:00 +10°C° 0 mm 4 mps 766 mmHg 78%
    19:00 +9°C° 0 mm 3 mps 766 mmHg 82%
    20:00 +8°C° 0 mm 3 mps 766 mmHg 86%
    21:00 +8°C° 0 mm 3 mps 766 mmHg 86%
    22:00 +7°C° 0 mm 3 mps 766 mmHg 85%
    23:00 +7°C° 0 mm 3 mps 766 mmHg 85%

    Day after tomorrow, 20 February, Wednesday

    Time Temperature Precipitation Wind Pressure Humidity
    00:00 +7°C° 0 mm 2 mps 765 mmHg 85%
    01:00 +7°C° 0 mm 2 mps 765 mmHg 85%
    02:00 +7°C° 0 mm 2 mps 765 mmHg 85%
    03:00 +7°C° 0 mm 2 mps 765 mmHg 84%
    04:00 +8°C° 0 mm 1 mps 764 mmHg 84%
    05:00 +7°C° 0 mm 1 mps 764 mmHg 84%
    06:00 +8°C° 0 mm 1 mps 764 mmHg 81%
    07:00 +8°C° 0 mm 1 mps 764 mmHg 79%
    08:00 +8°C° 0 mm 1 mps 764 mmHg 77%
    09:00 +9°C° 0 mm 2 mps 764 mmHg 69%
    10:00 +12°C° 0 mm 2 mps 764 mmHg 62%
    11:00 +14°C° 0 mm 2 mps 764 mmHg 55%
    12:00 +15°C° 0 mm 1 mps 764 mmHg 54%
    13:00 +16°C° 0 mm 1 mps 764 mmHg 53%
    14:00 +16°C° 0 mm 1 mps 763 mmHg 52%
    15:00 +16°C° 0 mm 1 mps 763 mmHg 56%
    16:00 +15°C° 0 mm 1 mps 763 mmHg 59%
    17:00 +15°C° 0 mm 1 mps 763 mmHg 63%
    18:00 +14°C° 0 mm 1 mps 764 mmHg 66%
    19:00 +13°C° 0 mm 2 mps 764 mmHg 70%
    20:00 +12°C° 0 mm 2 mps 764 mmHg 74%
    21:00 +10°C° 0 mm 2 mps 764 mmHg 73%
    22:00 +10°C° 0 mm 2 mps 765 mmHg 73%
    23:00 +9°C° 0 mm 3 mps 765 mmHg 72%

    21 February, Thursday

    Time Temperature Precipitation Wind Pressure Humidity
    00:00 +9°C° 0 mm 3 mps 765 mmHg 72%
    01:00 +8°C° 0 mm 4 mps 765 mmHg 71%
    02:00 +7°C° 0 mm 4 mps 765 mmHg 71%
    03:00 +7°C° 0 mm 4 mps 766 mmHg 71%
    04:00 +7°C° 0 mm 4 mps 766 mmHg 71%
    05:00 +6°C° 0 mm 4 mps 766 mmHg 71%
    06:00 +6°C° 0 mm 4 mps 767 mmHg 71%
    07:00 +6°C° 0 mm 4 mps 767 mmHg 72%
    08:00 +7°C° 0 mm 3 mps 768 mmHg 72%
    09:00 +8°C° 0 mm 3 mps 768 mmHg 69%
    10:00 +9°C° 0 mm 3 mps 768 mmHg 67%
    11:00 +12°C° 0 mm 2 mps 769 mmHg 64%
    12:00 +12°C° 0 mm 2 mps 768 mmHg 62%
    13:00 +13°C° 0 mm 2 mps 768 mmHg 61%
    14:00 +13°C° 0 mm 2 mps 768 mmHg 59%
    15:00 +13°C° 0 mm 2 mps 768 mmHg 62%
    16:00 +12°C° 0 mm 2 mps 768 mmHg 65%
    17:00 +12°C° 0 mm 2 mps 767 mmHg 68%
    18:00 +10°C° 0 mm 2 mps 768 mmHg 74%
    19:00 +9°C° 0 mm 2 mps 768 mmHg 79%
    20:00 +8°C° 0 mm 2 mps 768 mmHg 85%
    21:00 +8°C° 0 mm 2 mps 768 mmHg 85%
    22:00 +8°C° 0 mm 2 mps 768 mmHg 85%
    23:00 +7°C° 0 mm 2 mps 768 mmHg 86%

    22 February, Friday

    Time Temperature Precipitation Wind Pressure Humidity
    00:00 +7°C° 0 mm 2 mps 768 mmHg 85%
    01:00 +7°C° 0 mm 2 mps 768 mmHg 85%
    02:00 +7°C° 0 mm 2 mps 767 mmHg 84%
    03:00 +7°C° 0 mm 2 mps 767 mmHg 84%
    04:00 +7°C° 0 mm 2 mps 767 mmHg 84%
    05:00 +6°C° 0 mm 2 mps 767 mmHg 84%
    06:00 +7°C° 0 mm 2 mps 767 mmHg 83%
    07:00 +7°C° 0 mm 2 mps 766 mmHg 82%
    08:00 +7°C° 0 mm 2 mps 766 mmHg 81%
    09:00 +9°C° 0 mm 2 mps 766 mmHg 72%
    10:00 +10°C° 0 mm 2 mps 766 mmHg 63%
    11:00 +13°C° 0 mm 2 mps 766 mmHg 55%
    12:00 +12°C° 0 mm 3 mps 766 mmHg 55%
    13:00 +12°C° 0 mm 3 mps 766 mmHg 55%
    14:00 +12°C° 0 mm 3 mps 765 mmHg 55%
    15:00 +11°C° 0.3 mm 4 mps 765 mmHg 62%
    16:00 +10°C° 0.3 mm 4 mps 766 mmHg 68%
    17:00 +8°C° 0.3 mm 4 mps 766 mmHg 75%
    18:00 +8°C° 0.3 mm 5 mps 766 mmHg 77%
    19:00 +8°C° 0.3 mm 6 mps 767 mmHg 78%
    20:00 +6°C° 0.3 mm 7 mps 767 mmHg 80%
    21:00 +5°C° 0.5 mm 8 mps 768 mmHg 79%
    22:00 +3°C° 0.5 mm 10 mps 769 mmHg 78%
    23:00 +1°C° 0.5 mm 11 mps 770 mmHg 77%

    23 February, Saturday

    Time Temperature Precipitation Wind Pressure Humidity
    00:00 +1°C° 0.1 mm 11 mps 770 mmHg 75%
    01:00 -1°C° 0.1 mm 11 mps 771 mmHg 73%
    02:00 -2°C° 0.1 mm 10 mps 772 mmHg 72%
    03:00 -3°C° 0.1 mm 10 mps 773 mmHg 69%
    04:00 -3°C° 0.1 mm 10 mps 773 mmHg 67%
    05:00 -4°C° 0.1 mm 10 mps 774 mmHg 65%
    06:00 -5°C° 0 mm 10 mps 775 mmHg 64%
    07:00 -5°C° 0 mm 10 mps 776 mmHg 62%
    08:00 -5°C° 0 mm 10 mps 776 mmHg 61%
    09:00 -5°C° 0.1 mm 10 mps 777 mmHg 59%
    10:00 -4°C° 0.1 mm 10 mps 777 mmHg 57%
    11:00 -4°C° 0.1 mm 10 mps 777 mmHg 55%
    12:00 -3°C° 0 mm 10 mps 777 mmHg 52%
    13:00 -3°C° 0 mm 10 mps 777 mmHg 49%
    14:00 -3°C° 0 mm 9 mps 776 mmHg 47%
    15:00 -3°C° 0 mm 9 mps 776 mmHg 47%
    16:00 -3°C° 0 mm 9 mps 776 mmHg 46%
    17:00 -3°C° 0 mm 9 mps 776 mmHg 46%
    18:00 -2°C° 0 mm 8 mps 776 mmHg 47%
    19:00 -2°C° 0 mm 8 mps 776 mmHg 49%
    20:00 -2°C° 0 mm 7 mps 776 mmHg 50%
    21:00 -2°C° 0 mm 7 mps 776 mmHg 49%
    22:00 -2°C° 0 mm 6 mps 776 mmHg 48%
    23:00 -2°C° 0 mm 6 mps 775 mmHg 47%
    Show more